Date,TemperatureHighF,TemperatureAvgF,TemperatureLowF,DewpointHighF,DewpointAvgF,DewpointLowF,HumidityHigh,HumidityAvg,HumidityLow,PressureMaxIn,PressureMinIn,WindSpeedMaxMPH,WindSpeedAvgMPH,GustSpeedMaxMPH,PrecipitationSumIn
2013-1-1,45.7,43.1,37.9,44.2,39.8,33.3,95,88,78,30.25,30.02,12,4,15,0.02
2013-1-2,40.8,36.3,30.6,33.5,31.2,28.5,92,82,68,30.33,30.25,12,3,13,0.00
2013-1-3,50.5,38.8,26.4,35.8,30.8,24.8,95,75,48,30.45,30.33,11,2,13,0.00
2013-1-4,50.9,45.1,39.2,37.5,32.6,28.4,82,62,44,30.51,30.35,5,1,8,0.00
2013-1-5,55.5,44.9,36.0,41.7,38.4,34.0,94,79,55,30.35,30.21,10,1,10,0.00
2013-1-6,57.5,42.2,32.0,39.7,33.5,28.4,96,74,38,30.36,30.28,12,2,13,0.00
2013-1-7,54.7,42.6,29.0,39.7,34.1,27.2,94,74,45,30.35,30.10,12,1,12,0.00
2013-1-8,52.3,48.3,45.6,51.2,44.6,36.2,96,87,68,30.11,29.95,10,2,10,0.57
2013-1-9,55.5,53.4,50.2,54.4,52.2,49.1,97,96,95,30.12,29.98,14,2,16,2.99
2013-1-10,65.4,57.2,47.3,58.5,51.9,44.2,97,83,60,30.01,29.87,16,4,21,0.02
2013-1-11,72.2,60.2,47.3,58.0,49.4,44.1,89,70,42,29.96,29.78,17,6,22,0.00
2013-1-12,71.4,59.3,38.4,68.1,56.8,35.3,96,91,74,29.86,29.63,20,5,22,0.34
2013-1-13,45.0,37.7,31.1,35.8,30.7,24.0,89,76,61,30.26,29.85,17,8,22,0.01
2013-1-14,46.1,36.6,29.0,31.5,26.5,23.5,82,67,49,30.35,30.20,12,4,15,0.00
2013-1-15,36.8,34.0,31.0,33.3,29.1,23.0,93,82,61,30.22,30.12,13,5,16,0.07
2013-1-16,48.2,36.6,27.0,29.6,25.0,19.8,88,65,37,30.27,30.15,11,3,13,0.00
2013-1-17,60.1,44.1,28.7,38.4,32.7,24.7,90,66,42,30.48,30.23,13,2,15,0.00
2013-1-18,61.4,46.0,32.1,39.4,35.1,29.9,95,68,38,30.51,30.28,11,3,14,0.00
2013-1-19,65.1,49.2,35.9,44.6,39.2,33.1,91,70,42,30.28,30.15,18,3,18,0.00
2013-1-20,68.6,51.0,36.8,51.4,43.5,35.5,96,78,45,30.22,30.07,16,1,16,0.00
2013-1-21,61.0,48.9,41.0,46.4,41.8,35.7,96,78,52,30.25,30.11,10,2,11,0.00
2013-1-22,60.5,48.2,38.0,46.9,39.5,32.4,88,72,56,30.32,30.19,9,2,10,0.00
2013-1-23,72.8,57.5,42.5,55.9,49.8,40.3,95,77,49,30.26,30.13,13,2,15,0.00
2013-1-24,72.2,60.4,48.7,61.2,56.0,47.0,96,86,66,30.18,30.04,12,3,14,0.00
2013-1-25,63.3,52.9,47.2,60.2,50.1,45.3,96,90,80,30.17,29.99,13,2,15,0.00
2013-1-26,50.8,47.8,46.6,47.4,46.1,45.2,96,94,87,30.22,30.12,9,4,10,0.01
2013-1-27,73.8,61.3,47.3,63.6,56.7,46.2,97,86,63,30.12,29.93,16,6,18,0.00
2013-1-28,75.8,69.7,64.9,66.2,62.9,59.6,90,80,62,30.01,29.84,20,9,26,0.00
2013-1-29,76.0,66.1,53.3,66.8,61.5,49.2,93,86,54,29.85,29.42,25,8,33,0.65
2013-1-30,54.8,46.4,36.3,48.9,33.8,26.3,87,63,40,30.14,29.66,21,4,21,0.02
2013-1-31,66.8,49.1,35.5,37.9,29.3,22.8,80,51,20,30.30,30.10,17,4,17,0.00